Loisir ou Compétition : Rejoignez un Club de la Fédération

Résultats

CONCOURS DE LA RELEVE

LES TUFFES

MASS Dames

Jury de Compétition

Délégué Technique :
JOZ ROLAND RENE (MJ)
D.T. Adjoint :
 
Dir. Epreuve :
ARBEZ GINDRE FRANCOIS (MJ)

Caractéristiques de la Piste

Piste :
Stade Jason LAMY CHAPPUIS
Distance :
3 km
Point Haut :
 
Point Bas :
 
Montée Tot. :
 
Montée Max. :
 
Homologation :
 

Pénalité Appliquée :
 
Coefficient :
 

Catégorie :
U14
Style :
C
Clt Dos Clt/Cat Code An Nom Prénom Com Club Temps Ecart Points
Classés
1 172 1/U14 FFS2687286 2004 TOURNUT TATIANA MJ BOIS D'AMONT 11:21.9 00:00.0
2 174 2/U14 FFS2676811 2003 BAVEREL LOANE MJ ES SAUGETTE 12:02.8 00:40.9
3 162 3/U14 FFS2676469 2003 BONY VIOLETTE MB DRAGONS ANNY 12:03.8 00:41.9
4 166 4/U14 FFS2681392 2004 LOMBARDOT EGLANTINE MJ ES SAUGETTE 12:11.7 00:49.8
5 187 5/U14 FFS2681102 2003 BLANC ANNA MJ SC ABBAYE 12:13.3 00:51.4
6 179 6/U14 FFS2681114 2003 HUYGHE LOU MJ SC ABBAYE 12:17.9 00:56.0
7 184 7/U14 FFS2675771 2003 DUPONT CHLOE MB DRAGONS ANNY 12:30.8 01:08.9
8 180 8/U14 FFS2682602 2003 LEGENDRE TYFAINE MJ A.S MOUTHE 12:33.4 01:11.5
9 194 9/U14 FFS2683910 2003 COURVOISIER LEA MJ SC MONT NOIR 12:34.6 01:12.7
10 163 10/U14 FFS2676339 2003 NICOD MARION MJ OLYMP MT DOR 12:36.2 01:14.3
11 189 11/U14 FFS2681387 2004 BAVEREL JULIE MJ ES SAUGETTE 12:37.8 01:15.9
12 164 12/U14 FNS435146 2003 ROCHAT NOÉMIE SC VALLEE JO 12:43.4 01:21.5
13 185 13/U14 FFS2660383 2003 MACHUT PAULINE LY SC LE POIZAT 12:45.9 01:24.0
14 170 14/U14 FFS2676456 2004 TISSOT LOUISE MJ CSR PONTARLI 12:48.9 01:27.0
15 199 15/U14 FFS2683259 2003 ARDIET ELEONORE MJ A.S MOUTHE 12:56.4 01:34.5
16 201 16/U14 FFS2685677 2003 GRAPPE HANNA MJ SC GRANDVAUX 12:58.6 01:36.7
17 171 17/U14 FFS2686201 2004 BLONDEAU VALENTINE MJ SC MONT NOIR 13:08.8 01:46.9
18 165 18/U14 FFS2679749 2004 DAUVERGNE LISON MJ HT JURA SKI 13:14.5 01:52.6
19 190 19/U14 FFS2659973 2003 BEGUINOT CAMILLE LY SC LOMPNES 13:19.3 01:57.4
20 173 20/U14 FFS2686205 2004 CHAMBELLAND AGATHE MJ SC ABBAYE 13:26.1 02:04.2
21 191 21/U14 FFS2681411 2004 LEPINE LEONIE MJ ES SAUGETTE 13:27.4 02:05.5
22 196 22/U14 FFS2665204 2004 BARBARIN CHLOE LY US CORMARANC 13:28.1 02:06.2
23 200 23/U14 FFS2681805 2004 BOUTON MELIE MJ HT JURA SKI 13:34.3 02:12.4
24 168 24/U14 FFS2690040 2004 LACROIX SARAH MJ BOIS D'AMONT 13:41.3 02:19.4
25 195 25/U14 FFS2686425 2004 FAREY MAEVA MJ SC ABBAYE 13:41.6 02:19.7
26 175 26/U14 FFS2676336 2003 TREAND EMMA MJ OLYMP MT DOR 13:41.9 02:20.0
27 193 27/U14 FFS2671251 2003 LEMAIRE LUCIE MJ CSR PONTARLI 13:46.9 02:25.0
28 182 28/U14 FFS2671304 2003 CAILLAT MANON MJ SKI ROUSSES 13:52.6 02:30.7
29 169 29/U14 FFS2670237 2004 JACQUET PAULINE LY US CORMARANC 13:54.0 02:32.1
30 177 30/U14 FFS2681400 2004 CAPELLI LILY ROSE MJ ES SAUGETTE 14:10.3 02:48.4
31 176 31/U14 FNS463254 2003 FREIHOLZ LILOU SC VALLEE JO 14:13.8 02:51.9
32 178 32/U14 FFS2671260 2003 ALPY LOU MJ CSR PONTARLI 14:19.5 02:57.6
33 188 33/U14 FFS2676449 2003 KOGLER EMELINE MJ CSR PONTARLI 14:40.2 03:18.3
34 192 34/U14 FFS2682542 2003 LECOULTRE LARA MJ OLYMP MT DOR 14:52.5 03:30.6
35 197 35/U14 FFS2690039 2004 GALAND CASSANDRA MJ BOIS D'AMONT 14:53.2 03:31.3
36 167 36/U14 FFS2686942 2004 WATTEBLED ANNA MJ A.S MOUTHE 15:24.8 04:02.9
37 202 37/U14 FFS2669506 2004 SOUFALIS ROMY MJ PREMANON SC 15:26.3 04:04.4
38 186 38/U14 FFS2683261 2003 CLADEN SALOME MJ A.S MOUTHE 15:26.6 04:04.7
39 161 39/U14 FFS2683474 2003 DUINAT ROXANE MJ SC GRANDVAUX 15:42.7 04:20.8
Non partants
181 FFS2665617 2004 GARDONI MAELA LY SC LOMPNES
183 FFS2671248 2004 MICHAUD FIDEY LOU MJ CHAUX NEUVE
198 FFS2671253 2003 BOLE ISALINE MJ CSR PONTARLI